Year,Month,Day,Hour,Minute,Value (Times are PST for windspeed in km/hr)
2021,11,16,00,00,13.40
2021,11,16,00,01,11.80
2021,11,16,00,02,10.10
2021,11,16,00,03,10.50
2021,11,16,00,04,14.20
2021,11,16,00,05,12.10
2021,11,16,00,06,8.40
2021,11,16,00,07,16.40
2021,11,16,00,08,15.70
2021,11,16,00,09,14.30
2021,11,16,00,10,11.60
2021,11,16,00,11,6.00
2021,11,16,00,12,12.00
2021,11,16,00,13,13.00
2021,11,16,00,14,13.90
2021,11,16,00,15,9.90
2021,11,16,00,16,8.10
2021,11,16,00,17,9.50
2021,11,16,00,18,10.30
2021,11,16,00,19,14.20
2021,11,16,00,20,13.30
2021,11,16,00,21,10.70
2021,11,16,00,22,7.10
2021,11,16,00,23,7.70
2021,11,16,00,24,14.00
2021,11,16,00,25,7.80
2021,11,16,00,26,11.80
2021,11,16,00,27,4.30
2021,11,16,00,28,14.30
2021,11,16,00,29,9.60
2021,11,16,00,30,5.90
2021,11,16,00,31,9.50
2021,11,16,00,32,12.00
2021,11,16,00,33,4.50
2021,11,16,00,34,6.60
2021,11,16,00,35,1.50
2021,11,16,00,36,4.90
2021,11,16,00,37,7.10
2021,11,16,00,38,13.10
2021,11,16,00,39,4.80
2021,11,16,00,40,6.80
2021,11,16,00,41,5.90
2021,11,16,00,42,13.50
2021,11,16,00,43,6.30
2021,11,16,00,44,5.70
2021,11,16,00,45,5.60
2021,11,16,00,46,5.40
2021,11,16,00,47,14.80
2021,11,16,00,48,11.80
2021,11,16,00,49,5.60
2021,11,16,00,50,10.10
2021,11,16,00,51,6.30
2021,11,16,00,52,10.30
2021,11,16,00,53,9.70
2021,11,16,00,54,3.60
2021,11,16,00,55,7.00
2021,11,16,00,56,7.20
2021,11,16,00,57,7.60
2021,11,16,00,58,4.10
2021,11,16,00,59,1.90
2021,11,16,01,00,9.30
2021,11,16,01,01,7.70
2021,11,16,01,02,8.70
2021,11,16,01,03,3.80
2021,11,16,01,04,2.70
2021,11,16,01,05,6.10
2021,11,16,01,06,3.80
2021,11,16,01,07,12.60
2021,11,16,01,08,4.40
2021,11,16,01,09,3.60
2021,11,16,01,10,3.10
2021,11,16,01,11,9.00
2021,11,16,01,12,9.10
2021,11,16,01,13,4.90
2021,11,16,01,14,4.40
2021,11,16,01,15,9.00
2021,11,16,01,16,4.40
2021,11,16,01,17,2.90
2021,11,16,01,18,9.10
2021,11,16,01,19,8.90
2021,11,16,01,20,13.30
2021,11,16,01,21,10.70
2021,11,16,01,22,3.10
2021,11,16,01,23,16.90
2021,11,16,01,24,16.50
2021,11,16,01,25,7.20
2021,11,16,01,26,10.90
2021,11,16,01,27,10.30
2021,11,16,01,28,11.10
2021,11,16,01,29,1.60
2021,11,16,01,30,11.30
2021,11,16,01,31,16.00
2021,11,16,01,32,9.30
2021,11,16,01,33,9.00
2021,11,16,01,34,4.80
2021,11,16,01,35,6.90
2021,11,16,01,36,15.00
2021,11,16,01,37,8.80
2021,11,16,01,38,9.60
2021,11,16,01,39,13.80
2021,11,16,01,40,12.10
2021,11,16,01,41,8.40
2021,11,16,01,42,10.60
2021,11,16,01,43,11.30
2021,11,16,01,44,8.70
2021,11,16,01,45,18.70
2021,11,16,01,46,8.50
2021,11,16,01,47,11.40
2021,11,16,01,48,9.60
2021,11,16,01,49,6.40
2021,11,16,01,50,12.40
2021,11,16,01,51,8.00
2021,11,16,01,52,15.30
2021,11,16,01,53,10.50
2021,11,16,01,54,11.30
2021,11,16,01,55,8.10
2021,11,16,01,56,18.00
2021,11,16,01,57,17.30
2021,11,16,01,58,20.60
2021,11,16,01,59,17.60
2021,11,16,02,00,17.60
2021,11,16,02,01,15.90
2021,11,16,02,02,12.70
2021,11,16,02,03,15.70
2021,11,16,02,04,7.90
2021,11,16,02,05,9.00
2021,11,16,02,06,13.90
2021,11,16,02,07,6.90
2021,11,16,02,08,8.60
2021,11,16,02,09,5.00
2021,11,16,02,10,5.00
2021,11,16,02,11,6.70
2021,11,16,02,12,12.40
2021,11,16,02,13,5.70
2021,11,16,02,14,9.10
2021,11,16,02,15,15.90
2021,11,16,02,16,10.10
2021,11,16,02,17,15.40
2021,11,16,02,18,14.30
2021,11,16,02,19,5.50
2021,11,16,02,20,10.70
2021,11,16,02,21,11.70
2021,11,16,02,22,11.30
2021,11,16,02,23,12.30
2021,11,16,02,24,15.60
2021,11,16,02,25,8.60
2021,11,16,02,26,11.90
2021,11,16,02,27,14.90
2021,11,16,02,28,17.00
2021,11,16,02,29,18.20
2021,11,16,02,30,20.40
2021,11,16,02,31,14.60
2021,11,16,02,32,20.10
2021,11,16,02,33,14.30
2021,11,16,02,34,13.40
2021,11,16,02,35,10.20
2021,11,16,02,36,13.40
2021,11,16,02,37,12.70
2021,11,16,02,38,12.50
2021,11,16,02,39,16.60
2021,11,16,02,40,23.00
2021,11,16,02,41,14.60
2021,11,16,02,42,17.90
2021,11,16,02,43,11.10
2021,11,16,02,44,6.90
2021,11,16,02,45,5.10
2021,11,16,02,46,14.90
2021,11,16,02,47,13.70
2021,11,16,02,48,8.50
2021,11,16,02,49,22.70
2021,11,16,02,50,21.10
2021,11,16,02,51,12.00
2021,11,16,02,52,8.00
2021,11,16,02,53,11.60
2021,11,16,02,54,16.00
2021,11,16,02,55,9.50
2021,11,16,02,56,15.90
2021,11,16,02,57,20.40
2021,11,16,02,58,10.40
2021,11,16,02,59,6.30
2021,11,16,03,00,13.80
2021,11,16,03,01,12.70
2021,11,16,03,02,7.00
2021,11,16,03,03,12.20
2021,11,16,03,04,9.70
2021,11,16,03,05,5.40
2021,11,16,03,06,12.70
2021,11,16,03,07,10.60
2021,11,16,03,08,15.10
2021,11,16,03,09,18.40
2021,11,16,03,10,14.20
2021,11,16,03,11,15.70
2021,11,16,03,12,6.40
2021,11,16,03,13,8.60
2021,11,16,03,14,15.70
2021,11,16,03,15,18.20
2021,11,16,03,16,10.90
2021,11,16,03,17,10.80
2021,11,16,03,18,10.30
2021,11,16,03,19,4.30
2021,11,16,03,20,15.30
2021,11,16,03,21,9.70
2021,11,16,03,22,10.90
2021,11,16,03,23,15.00
2021,11,16,03,24,14.00
2021,11,16,03,25,10.20
2021,11,16,03,26,8.20
2021,11,16,03,27,7.20
2021,11,16,03,28,14.50
2021,11,16,03,29,10.90
2021,11,16,03,30,13.40
2021,11,16,03,31,13.10
2021,11,16,03,32,13.10
2021,11,16,03,33,8.20
2021,11,16,03,34,6.80
2021,11,16,03,35,9.90
2021,11,16,03,36,10.40
2021,11,16,03,37,10.40
2021,11,16,03,38,16.40
2021,11,16,03,39,13.00
2021,11,16,03,40,8.70
2021,11,16,03,41,6.40
2021,11,16,03,42,12.40
2021,11,16,03,43,15.70
2021,11,16,03,44,11.90
2021,11,16,03,45,7.50
2021,11,16,03,46,7.00
2021,11,16,03,47,9.90
2021,11,16,03,48,18.00
2021,11,16,03,49,8.70
2021,11,16,03,50,5.50
2021,11,16,03,51,12.60
2021,11,16,03,52,13.60
2021,11,16,03,53,8.50
2021,11,16,03,54,14.90
2021,11,16,03,55,10.60
2021,11,16,03,56,20.60
2021,11,16,03,57,15.10
2021,11,16,03,58,7.80
2021,11,16,03,59,6.90
2021,11,16,04,00,9.30
2021,11,16,04,01,10.40
2021,11,16,04,02,11.20
2021,11,16,04,03,10.30
2021,11,16,04,04,11.30
2021,11,16,04,05,13.10
2021,11,16,04,06,12.20
2021,11,16,04,07,6.60
2021,11,16,04,08,12.90
2021,11,16,04,09,12.70
2021,11,16,04,10,13.00
2021,11,16,04,11,14.80
2021,11,16,04,12,10.80
2021,11,16,04,13,10.40
2021,11,16,04,14,8.90
2021,11,16,04,15,6.90
2021,11,16,04,16,12.20
2021,11,16,04,17,8.30
2021,11,16,04,18,7.70
2021,11,16,04,19,7.60
2021,11,16,04,20,3.80
2021,11,16,04,21,6.40
2021,11,16,04,22,8.80
2021,11,16,04,23,7.70
2021,11,16,04,24,7.30
2021,11,16,04,25,11.00
2021,11,16,04,26,10.10
2021,11,16,04,27,9.20
2021,11,16,04,28,9.80
2021,11,16,04,29,9.10
2021,11,16,04,30,12.10
2021,11,16,04,31,7.60
2021,11,16,04,32,9.60
2021,11,16,04,33,9.20
2021,11,16,04,34,1.80
2021,11,16,04,35,4.40
2021,11,16,04,36,13.80
2021,11,16,04,37,10.40
2021,11,16,04,38,8.40
2021,11,16,04,39,7.30
2021,11,16,04,40,8.10
2021,11,16,04,41,13.30
2021,11,16,04,42,11.40
2021,11,16,04,43,5.90
2021,11,16,04,44,5.70
2021,11,16,04,45,16.20
2021,11,16,04,46,11.20
2021,11,16,04,47,5.70
2021,11,16,04,48,13.60
2021,11,16,04,49,2.00
2021,11,16,04,50,7.60
2021,11,16,04,51,6.90
2021,11,16,04,52,12.40
2021,11,16,04,53,13.80
2021,11,16,04,54,13.40
2021,11,16,04,55,5.80
2021,11,16,04,56,14.10
2021,11,16,04,57,17.10
2021,11,16,04,58,21.30
2021,11,16,04,59,7.20
2021,11,16,05,00,17.10
2021,11,16,05,01,15.60
2021,11,16,05,02,16.50
2021,11,16,05,03,21.70
2021,11,16,05,04,19.20
2021,11,16,05,05,16.30
2021,11,16,05,06,18.90
2021,11,16,05,07,17.90
2021,11,16,05,08,19.60
2021,11,16,05,09,9.70
2021,11,16,05,10,11.10
2021,11,16,05,11,11.80
2021,11,16,05,12,16.80
2021,11,16,05,13,12.00
2021,11,16,05,14,4.90
2021,11,16,05,15,17.20
2021,11,16,05,16,3.40
2021,11,16,05,17,5.60
2021,11,16,05,18,18.30
2021,11,16,05,19,11.20
2021,11,16,05,20,16.40
2021,11,16,05,21,9.80
2021,11,16,05,22,20.80
2021,11,16,05,23,16.60
2021,11,16,05,24,15.90
2021,11,16,05,25,22.20
2021,11,16,05,26,18.80
2021,11,16,05,27,16.20
2021,11,16,05,28,12.00
2021,11,16,05,29,11.20
2021,11,16,05,30,21.80
2021,11,16,05,31,21.50
2021,11,16,05,32,14.50
2021,11,16,05,33,12.20
2021,11,16,05,34,13.90
2021,11,16,05,35,14.90
2021,11,16,05,36,9.70
2021,11,16,05,37,11.30
2021,11,16,05,38,21.60
2021,11,16,05,39,14.50
2021,11,16,05,40,13.80
2021,11,16,05,41,13.80
2021,11,16,05,42,10.30
2021,11,16,05,43,11.30
2021,11,16,05,44,12.60
2021,11,16,05,45,15.90
2021,11,16,05,46,14.60
2021,11,16,05,47,7.90
2021,11,16,05,48,15.80
2021,11,16,05,49,14.10
2021,11,16,05,50,14.10
2021,11,16,05,51,9.60
2021,11,16,05,52,10.60
2021,11,16,05,53,6.00
2021,11,16,05,54,8.60
2021,11,16,05,55,14.40
2021,11,16,05,56,2.70
2021,11,16,05,57,6.00
2021,11,16,05,58,16.10
2021,11,16,05,59,6.40
2021,11,16,06,00,14.80
2021,11,16,06,01,11.90
2021,11,16,06,02,10.30
2021,11,16,06,03,14.10
2021,11,16,06,04,11.90
2021,11,16,06,05,11.70
2021,11,16,06,06,18.80
2021,11,16,06,07,8.50
2021,11,16,06,08,14.30
2021,11,16,06,09,12.50
2021,11,16,06,10,15.00
2021,11,16,06,11,12.70
2021,11,16,06,12,9.90
2021,11,16,06,13,12.40
2021,11,16,06,14,11.70
2021,11,16,06,15,18.30
2021,11,16,06,16,20.00
2021,11,16,06,17,17.80
2021,11,16,06,18,8.30
2021,11,16,06,19,13.80
2021,11,16,06,20,8.40
2021,11,16,06,21,8.90
2021,11,16,06,22,11.30
2021,11,16,06,23,16.60
2021,11,16,06,24,9.60
2021,11,16,06,25,11.30
2021,11,16,06,26,3.80
2021,11,16,06,27,4.50
2021,11,16,06,28,3.40
2021,11,16,06,29,6.30
2021,11,16,06,30,5.00
2021,11,16,06,31,2.00
2021,11,16,06,32,1.50
2021,11,16,06,33,0.00
2021,11,16,06,34,3.60
2021,11,16,06,35,0.00
2021,11,16,06,36,0.00
2021,11,16,06,37,0.60
2021,11,16,06,38,0.00
2021,11,16,06,39,3.60
2021,11,16,06,40,15.80
2021,11,16,06,41,8.80
2021,11,16,06,42,10.80
2021,11,16,06,43,2.00
2021,11,16,06,44,9.70
2021,11,16,06,45,7.00
2021,11,16,06,46,1.50
2021,11,16,06,47,8.60
2021,11,16,06,48,6.10
2021,11,16,06,49,0.00
2021,11,16,06,50,5.30
2021,11,16,06,51,11.50
2021,11,16,06,52,16.20
2021,11,16,06,53,5.60
2021,11,16,06,54,3.00
2021,11,16,06,55,10.80
2021,11,16,06,56,18.50
2021,11,16,06,57,10.40
2021,11,16,06,58,3.60
2021,11,16,06,59,1.90
2021,11,16,07,00,0.00
2021,11,16,07,01,0.00
2021,11,16,07,02,0.00
2021,11,16,07,03,0.00
2021,11,16,07,04,0.00
2021,11,16,07,05,0.00
2021,11,16,07,06,0.00
2021,11,16,07,07,0.00
2021,11,16,07,08,0.00
2021,11,16,07,09,1.10
2021,11,16,07,10,0.10
2021,11,16,07,11,0.00
2021,11,16,07,12,0.00
2021,11,16,07,13,0.00
2021,11,16,07,14,0.00
2021,11,16,07,15,0.00
2021,11,16,07,16,0.00
2021,11,16,07,17,0.00
2021,11,16,07,18,4.80
2021,11,16,07,19,0.00
2021,11,16,07,20,0.00
2021,11,16,07,21,0.00
2021,11,16,07,22,0.00
2021,11,16,07,23,0.00
2021,11,16,07,24,1.40
2021,11,16,07,25,1.20
2021,11,16,07,26,1.20
2021,11,16,07,27,2.80
2021,11,16,07,28,0.00
2021,11,16,07,29,5.70
2021,11,16,07,30,2.60
2021,11,16,07,31,2.30
2021,11,16,07,32,5.00
2021,11,16,07,33,5.50
2021,11,16,07,34,4.90
2021,11,16,07,35,9.30
2021,11,16,07,36,6.70
2021,11,16,07,37,10.60
2021,11,16,07,38,9.70
2021,11,16,07,39,8.00
2021,11,16,07,40,5.90
2021,11,16,07,41,1.80
2021,11,16,07,42,6.90
2021,11,16,07,43,8.10
2021,11,16,07,44,3.80
2021,11,16,07,45,0.00
2021,11,16,07,46,3.20
2021,11,16,07,47,4.60
2021,11,16,07,48,0.10
2021,11,16,07,49,7.90
2021,11,16,07,50,9.80
2021,11,16,07,51,5.10
2021,11,16,07,52,1.50
2021,11,16,07,53,0.00
2021,11,16,07,54,0.00
2021,11,16,07,55,0.50
2021,11,16,07,56,5.60
2021,11,16,07,57,1.90
2021,11,16,07,58,3.40
2021,11,16,07,59,0.00
2021,11,16,08,00,0.00
2021,11,16,08,01,0.00
2021,11,16,08,02,0.00
2021,11,16,08,03,0.00
2021,11,16,08,04,0.00
2021,11,16,08,05,0.00
2021,11,16,08,06,0.00
2021,11,16,08,07,0.00
2021,11,16,08,08,3.50
2021,11,16,08,09,0.00
2021,11,16,08,10,0.00
2021,11,16,08,11,0.00
2021,11,16,08,12,0.00
2021,11,16,08,13,0.00
2021,11,16,08,14,0.00
2021,11,16,08,15,0.10
2021,11,16,08,16,0.50
2021,11,16,08,17,0.00
2021,11,16,08,18,0.00
2021,11,16,08,19,0.00
2021,11,16,08,20,0.00
2021,11,16,08,21,0.00
2021,11,16,08,22,0.00
2021,11,16,08,23,5.70
2021,11,16,08,24,7.10
2021,11,16,08,25,6.40
2021,11,16,08,26,5.20
2021,11,16,08,27,0.00
2021,11,16,08,28,0.00
2021,11,16,08,29,0.00
2021,11,16,08,30,7.20
2021,11,16,08,31,7.10
2021,11,16,08,32,8.40
2021,11,16,08,33,3.70
2021,11,16,08,34,0.00
2021,11,16,08,35,3.90
2021,11,16,08,36,4.90
2021,11,16,08,37,9.20
2021,11,16,08,38,7.40
2021,11,16,08,39,7.10
2021,11,16,08,40,2.80
2021,11,16,08,41,6.30
2021,11,16,08,42,2.00
2021,11,16,08,43,0.00
2021,11,16,08,44,0.00
2021,11,16,08,45,0.00
2021,11,16,08,46,0.00
2021,11,16,08,47,0.00
2021,11,16,08,48,0.00
2021,11,16,08,49,0.00
2021,11,16,08,50,0.00
2021,11,16,08,51,0.00
2021,11,16,08,52,0.00
2021,11,16,08,53,0.00
2021,11,16,08,54,8.10
2021,11,16,08,55,0.30
2021,11,16,08,56,0.00
2021,11,16,08,57,0.00
2021,11,16,08,58,0.00
2021,11,16,08,59,0.00
2021,11,16,09,00,0.00
2021,11,16,09,01,0.00
2021,11,16,09,02,0.00
2021,11,16,09,03,3.90
2021,11,16,09,04,2.10
2021,11,16,09,05,1.80
2021,11,16,09,06,2.90
2021,11,16,09,07,0.40
2021,11,16,09,08,7.80
2021,11,16,09,09,8.00
2021,11,16,09,10,5.50
2021,11,16,09,11,8.40
2021,11,16,09,12,7.20
2021,11,16,09,13,11.60
2021,11,16,09,14,11.00
2021,11,16,09,15,8.80
2021,11,16,09,16,8.00
2021,11,16,09,17,6.40
2021,11,16,09,18,4.10
2021,11,16,09,19,2.50
2021,11,16,09,20,6.90
2021,11,16,09,21,8.00
2021,11,16,09,22,1.00
2021,11,16,09,23,2.80
2021,11,16,09,24,8.50
2021,11,16,09,25,8.70
2021,11,16,09,26,9.90
2021,11,16,09,27,8.00
2021,11,16,09,28,6.00
2021,11,16,09,29,5.60
2021,11,16,09,30,2.60
2021,11,16,09,31,1.50
2021,11,16,09,32,3.50
2021,11,16,09,33,7.60
2021,11,16,09,34,3.10
2021,11,16,09,35,3.60
2021,11,16,09,36,0.20
2021,11,16,09,37,7.60
2021,11,16,09,38,7.10
2021,11,16,09,39,5.10
2021,11,16,09,40,4.60
2021,11,16,09,41,0.00
2021,11,16,09,42,5.10
2021,11,16,09,43,7.10
2021,11,16,09,44,3.70
2021,11,16,09,45,0.00
2021,11,16,09,46,0.00
2021,11,16,09,47,1.80
2021,11,16,09,48,9.30
2021,11,16,09,49,0.10
2021,11,16,09,50,0.00
2021,11,16,09,51,0.00
2021,11,16,09,52,1.00
2021,11,16,09,53,10.20
2021,11,16,09,54,6.40
2021,11,16,09,55,0.80
2021,11,16,09,56,0.00
2021,11,16,09,57,0.00
2021,11,16,09,58,0.00
2021,11,16,09,59,4.10
2021,11,16,10,00,5.30
2021,11,16,10,01,6.70
2021,11,16,10,02,2.40
2021,11,16,10,03,2.80
2021,11,16,10,04,0.00
2021,11,16,10,05,1.50
2021,11,16,10,06,8.30
2021,11,16,10,07,0.00
2021,11,16,10,08,0.00
2021,11,16,10,09,6.60
2021,11,16,10,10,7.40
2021,11,16,10,11,0.10
2021,11,16,10,12,5.50
2021,11,16,10,13,8.60
2021,11,16,10,14,7.80
2021,11,16,10,15,1.40
2021,11,16,10,16,4.20
2021,11,16,10,17,1.90
2021,11,16,10,18,0.00
2021,11,16,10,19,0.00
2021,11,16,10,20,0.00
2021,11,16,10,21,0.00
2021,11,16,10,22,0.00
2021,11,16,10,23,0.00
2021,11,16,10,24,0.00
2021,11,16,10,25,0.00
2021,11,16,10,26,0.00
2021,11,16,10,27,0.00
2021,11,16,10,28,0.00
2021,11,16,10,29,0.80
2021,11,16,10,30,9.40
2021,11,16,10,31,2.10
2021,11,16,10,32,0.70
2021,11,16,10,33,0.00
2021,11,16,10,34,0.00
2021,11,16,10,35,0.00
2021,11,16,10,36,4.10
2021,11,16,10,37,0.00
2021,11,16,10,38,0.00
2021,11,16,10,39,0.00
2021,11,16,10,40,0.00
2021,11,16,10,41,0.00
2021,11,16,10,42,0.00
2021,11,16,10,43,0.00
2021,11,16,10,44,1.20
2021,11,16,10,45,0.00
2021,11,16,10,46,0.00
2021,11,16,10,47,0.00
2021,11,16,10,48,0.30
2021,11,16,10,49,0.00
2021,11,16,10,50,0.00
2021,11,16,10,51,0.00
2021,11,16,10,52,0.00
2021,11,16,10,53,0.00
2021,11,16,10,54,0.00
2021,11,16,10,55,2.60
2021,11,16,10,56,7.30
2021,11,16,10,57,0.00
2021,11,16,10,58,0.00
2021,11,16,10,59,0.00
2021,11,16,11,00,0.00
2021,11,16,11,01,0.00
2021,11,16,11,02,0.00
2021,11,16,11,03,0.00
2021,11,16,11,04,0.00
2021,11,16,11,05,0.00
2021,11,16,11,06,0.00
2021,11,16,11,07,0.00
2021,11,16,11,08,0.00
2021,11,16,11,09,0.00
2021,11,16,11,10,0.00
2021,11,16,11,11,0.00
2021,11,16,11,12,0.00
2021,11,16,11,13,0.00
2021,11,16,11,14,1.90
2021,11,16,11,15,0.00
2021,11,16,11,16,0.00
2021,11,16,11,17,0.00
2021,11,16,11,18,0.00
2021,11,16,11,19,0.00
2021,11,16,11,20,0.00
2021,11,16,11,21,0.00
2021,11,16,11,22,0.00
2021,11,16,11,23,0.00
2021,11,16,11,24,0.00
2021,11,16,11,25,0.00
2021,11,16,11,26,0.00
2021,11,16,11,27,0.00
2021,11,16,11,28,0.00
2021,11,16,11,29,0.00
2021,11,16,11,30,0.00
2021,11,16,11,31,0.00
2021,11,16,11,32,0.00
2021,11,16,11,33,0.00
2021,11,16,11,34,0.00
2021,11,16,11,35,0.00
2021,11,16,11,36,0.00
2021,11,16,11,37,0.00
2021,11,16,11,38,0.00
2021,11,16,11,39,0.00
2021,11,16,11,40,0.00
2021,11,16,11,41,0.00
2021,11,16,11,42,0.00
2021,11,16,11,43,0.00
2021,11,16,11,44,0.00
2021,11,16,11,45,0.00
2021,11,16,11,46,0.00
2021,11,16,11,47,0.00
2021,11,16,11,48,0.00
2021,11,16,11,49,1.50
2021,11,16,11,50,6.00
2021,11,16,11,51,0.00
2021,11,16,11,52,0.50
2021,11,16,11,53,0.90
2021,11,16,11,54,0.00
2021,11,16,11,55,0.00
2021,11,16,11,56,0.00
2021,11,16,11,57,0.00
2021,11,16,11,58,0.00
2021,11,16,11,59,0.00
2021,11,16,12,00,0.00
2021,11,16,12,01,0.00
2021,11,16,12,02,0.00
2021,11,16,12,03,0.00
2021,11,16,12,04,0.00
2021,11,16,12,05,0.50
2021,11,16,12,06,0.00
2021,11,16,12,07,0.00
2021,11,16,12,08,0.00
2021,11,16,12,09,0.00
2021,11,16,12,10,2.90
2021,11,16,12,11,1.30
2021,11,16,12,12,0.70
2021,11,16,12,13,0.00
2021,11,16,12,14,0.40
2021,11,16,12,15,1.40
2021,11,16,12,16,0.50
2021,11,16,12,17,0.70
2021,11,16,12,18,0.00
2021,11,16,12,19,0.00
2021,11,16,12,20,0.00
2021,11,16,12,21,0.00
2021,11,16,12,22,0.00
2021,11,16,12,23,0.00
2021,11,16,12,24,0.00
2021,11,16,12,25,0.00
2021,11,16,12,26,3.80
2021,11,16,12,27,2.10
2021,11,16,12,28,3.30
2021,11,16,12,29,1.00
2021,11,16,12,30,0.20
2021,11,16,12,31,0.00
2021,11,16,12,32,0.00
2021,11,16,12,33,0.00
2021,11,16,12,34,0.00
2021,11,16,12,35,0.20
2021,11,16,12,36,0.00
2021,11,16,12,37,1.10
2021,11,16,12,38,0.60
2021,11,16,12,39,0.00
2021,11,16,12,40,0.00
2021,11,16,12,41,0.00
2021,11,16,12,42,0.00
2021,11,16,12,43,0.00
2021,11,16,12,44,0.00
2021,11,16,12,45,0.70
2021,11,16,12,46,0.00
2021,11,16,12,47,0.00
2021,11,16,12,48,0.00
2021,11,16,12,49,0.00
2021,11,16,12,50,0.00
2021,11,16,12,51,0.00
2021,11,16,12,52,0.00
2021,11,16,12,53,0.00
2021,11,16,12,54,0.00
2021,11,16,12,55,0.00
2021,11,16,12,56,0.00
2021,11,16,12,57,0.00
2021,11,16,12,58,0.00
2021,11,16,12,59,0.00
2021,11,16,13,00,0.00
2021,11,16,13,01,0.00
2021,11,16,13,02,0.00
2021,11,16,13,03,0.00
2021,11,16,13,04,0.00
2021,11,16,13,05,0.00
2021,11,16,13,06,2.40
2021,11,16,13,07,0.00
2021,11,16,13,08,0.70
2021,11,16,13,09,0.00
2021,11,16,13,10,0.00
2021,11,16,13,11,0.00
2021,11,16,13,12,0.00
2021,11,16,13,13,0.00
2021,11,16,13,14,0.00
2021,11,16,13,15,0.00
2021,11,16,13,16,0.00
2021,11,16,13,17,0.00
2021,11,16,13,18,0.00
2021,11,16,13,19,0.00
2021,11,16,13,20,0.00
2021,11,16,13,21,0.00
2021,11,16,13,22,0.00
2021,11,16,13,23,0.00
2021,11,16,13,24,0.00
2021,11,16,13,25,0.00
2021,11,16,13,26,0.00
2021,11,16,13,27,0.00
2021,11,16,13,28,0.00
2021,11,16,13,29,0.00
2021,11,16,13,30,0.00
2021,11,16,13,31,0.00
2021,11,16,13,32,0.00
2021,11,16,13,33,0.00
2021,11,16,13,34,0.00
2021,11,16,13,35,0.00
2021,11,16,13,36,1.30
2021,11,16,13,37,0.00
2021,11,16,13,38,0.00
2021,11,16,13,39,0.00
2021,11,16,13,40,0.00
2021,11,16,13,41,0.00
2021,11,16,13,42,0.00
2021,11,16,13,43,0.00
2021,11,16,13,44,0.00
2021,11,16,13,45,0.00
2021,11,16,13,46,0.00
2021,11,16,13,47,0.00
2021,11,16,13,48,0.00
2021,11,16,13,49,0.00
2021,11,16,13,50,0.00
2021,11,16,13,51,0.00
2021,11,16,13,52,0.00
2021,11,16,13,53,0.00
2021,11,16,13,54,0.00
2021,11,16,13,55,0.00
2021,11,16,13,56,1.40
2021,11,16,13,57,0.00
2021,11,16,13,58,0.00
2021,11,16,13,59,0.00
2021,11,16,14,00,0.00
2021,11,16,14,01,0.00
2021,11,16,14,02,0.00
2021,11,16,14,03,0.00
2021,11,16,14,04,0.00
2021,11,16,14,05,0.00
2021,11,16,14,06,0.00
2021,11,16,14,07,0.00
2021,11,16,14,08,0.00
2021,11,16,14,09,0.00
2021,11,16,14,10,0.00
2021,11,16,14,11,0.00
2021,11,16,14,12,0.00
2021,11,16,14,13,0.00
2021,11,16,14,14,0.00
2021,11,16,14,15,0.00
2021,11,16,14,16,0.00
2021,11,16,14,17,0.00
2021,11,16,14,18,0.00
2021,11,16,14,19,0.00
2021,11,16,14,20,0.00
2021,11,16,14,21,0.00
2021,11,16,14,22,0.00
2021,11,16,14,23,0.00
2021,11,16,14,24,0.00
2021,11,16,14,25,0.00
2021,11,16,14,26,0.00
2021,11,16,14,27,0.00
2021,11,16,14,28,0.00
2021,11,16,14,29,0.00
2021,11,16,14,30,0.00
2021,11,16,14,31,0.00
2021,11,16,14,32,0.00
2021,11,16,14,33,0.00
2021,11,16,14,34,0.00
2021,11,16,14,35,0.00
2021,11,16,14,36,0.00
2021,11,16,14,37,0.00
2021,11,16,14,38,0.00
2021,11,16,14,39,0.00
2021,11,16,14,40,0.00
2021,11,16,14,41,0.00
2021,11,16,14,42,0.30
2021,11,16,14,43,0.90
2021,11,16,14,44,0.00
2021,11,16,14,45,0.00
2021,11,16,14,46,0.00
2021,11,16,14,47,0.90
2021,11,16,14,48,0.00
2021,11,16,14,49,0.00
2021,11,16,14,50,0.00
2021,11,16,14,51,0.00
2021,11,16,14,52,0.00
2021,11,16,14,53,0.00
2021,11,16,14,54,0.00
2021,11,16,14,55,0.00
2021,11,16,14,56,0.00
2021,11,16,14,57,0.00
2021,11,16,14,58,0.00
2021,11,16,14,59,0.00
2021,11,16,15,00,0.00
2021,11,16,15,01,0.00
2021,11,16,15,02,0.00
2021,11,16,15,03,0.10
2021,11,16,15,04,0.00
2021,11,16,15,05,0.00
2021,11,16,15,06,0.00
2021,11,16,15,07,0.00
2021,11,16,15,08,0.00
2021,11,16,15,09,0.00
2021,11,16,15,10,0.00
2021,11,16,15,11,0.00
2021,11,16,15,12,0.00
2021,11,16,15,13,0.00
2021,11,16,15,14,0.00
2021,11,16,15,15,0.00
2021,11,16,15,16,0.00
2021,11,16,15,17,0.00
2021,11,16,15,18,0.00
2021,11,16,15,19,0.00
2021,11,16,15,20,0.00
2021,11,16,15,21,0.00
2021,11,16,15,22,0.00
2021,11,16,15,23,0.00
2021,11,16,15,24,0.20
2021,11,16,15,25,0.00
2021,11,16,15,26,0.00
2021,11,16,15,27,0.00
2021,11,16,15,28,0.00
2021,11,16,15,29,0.00
2021,11,16,15,30,0.00
2021,11,16,15,31,0.00
2021,11,16,15,32,0.00
2021,11,16,15,33,0.00
2021,11,16,15,34,0.00
2021,11,16,15,35,0.10
2021,11,16,15,36,0.60
2021,11,16,15,37,0.00
2021,11,16,15,38,0.00
2021,11,16,15,39,0.00
2021,11,16,15,40,0.00
2021,11,16,15,41,0.00
2021,11,16,15,42,0.00
2021,11,16,15,43,0.00
2021,11,16,15,44,0.00
2021,11,16,15,45,0.80
2021,11,16,15,46,0.60
2021,11,16,15,47,0.30
2021,11,16,15,48,0.80
2021,11,16,15,49,2.50
2021,11,16,15,50,0.40
2021,11,16,15,51,2.30
2021,11,16,15,52,0.00
2021,11,16,15,53,0.00
2021,11,16,15,54,0.00
2021,11,16,15,55,0.00
2021,11,16,15,56,0.00
2021,11,16,15,57,0.50
2021,11,16,15,58,0.00
2021,11,16,15,59,0.00
2021,11,16,16,00,0.00
2021,11,16,16,01,1.20
2021,11,16,16,02,1.80
2021,11,16,16,03,0.00
2021,11,16,16,04,0.00
2021,11,16,16,05,0.00
2021,11,16,16,06,0.00
2021,11,16,16,07,0.00
2021,11,16,16,08,0.00
2021,11,16,16,09,0.00
2021,11,16,16,10,0.00
2021,11,16,16,11,0.00
2021,11,16,16,12,0.30
2021,11,16,16,13,0.00
2021,11,16,16,14,0.00
2021,11,16,16,15,0.00
2021,11,16,16,16,0.00
2021,11,16,16,17,0.00
2021,11,16,16,18,0.00
2021,11,16,16,19,0.00
2021,11,16,16,20,0.00
2021,11,16,16,21,0.00
2021,11,16,16,22,0.00
2021,11,16,16,23,0.00
2021,11,16,16,24,0.00
2021,11,16,16,25,0.00
2021,11,16,16,26,0.00
2021,11,16,16,27,0.00
2021,11,16,16,28,0.00
2021,11,16,16,29,0.00
2021,11,16,16,30,0.00
2021,11,16,16,31,0.00
2021,11,16,16,32,0.00
2021,11,16,16,33,0.00
2021,11,16,16,34,0.00
2021,11,16,16,35,0.00
2021,11,16,16,36,0.00
2021,11,16,16,37,0.00
2021,11,16,16,38,0.00
2021,11,16,16,39,0.00
2021,11,16,16,40,0.00
2021,11,16,16,41,0.00
2021,11,16,16,42,0.00
2021,11,16,16,43,0.00
2021,11,16,16,44,0.00
2021,11,16,16,45,0.00
2021,11,16,16,46,0.00
2021,11,16,16,47,0.00
2021,11,16,16,48,0.00
2021,11,16,16,49,0.00
2021,11,16,16,50,0.00
2021,11,16,16,51,0.00
2021,11,16,16,52,0.00
2021,11,16,16,53,0.00
2021,11,16,16,54,0.00
2021,11,16,16,55,0.00
2021,11,16,16,56,0.00
2021,11,16,16,57,0.00
2021,11,16,16,58,0.00
2021,11,16,16,59,0.00
2021,11,16,17,00,0.00
2021,11,16,17,01,0.00
2021,11,16,17,02,0.00
2021,11,16,17,03,0.00
2021,11,16,17,04,0.00
2021,11,16,17,05,0.00
2021,11,16,17,06,0.00
2021,11,16,17,07,0.00
2021,11,16,17,08,0.00
2021,11,16,17,09,0.00
2021,11,16,17,10,0.00
2021,11,16,17,11,0.00
2021,11,16,17,12,0.00
2021,11,16,17,13,0.00
2021,11,16,17,14,0.00
2021,11,16,17,15,0.00
2021,11,16,17,16,0.00
2021,11,16,17,17,0.00
2021,11,16,17,18,0.00
2021,11,16,17,19,0.00
2021,11,16,17,20,0.00
2021,11,16,17,21,0.00
2021,11,16,17,22,0.00
2021,11,16,17,23,0.00
2021,11,16,17,24,0.00
2021,11,16,17,25,0.00
2021,11,16,17,26,0.00
2021,11,16,17,27,0.00
2021,11,16,17,28,0.00
2021,11,16,17,29,0.00
2021,11,16,17,30,0.00
2021,11,16,17,31,0.00
2021,11,16,17,32,0.00
2021,11,16,17,33,0.00
2021,11,16,17,34,0.00
2021,11,16,17,35,0.00
2021,11,16,17,36,0.00
2021,11,16,17,37,0.00
2021,11,16,17,38,0.00
2021,11,16,17,39,0.00
2021,11,16,17,40,0.00
2021,11,16,17,41,0.00
2021,11,16,17,42,0.00
2021,11,16,17,43,0.00
2021,11,16,17,44,0.00
2021,11,16,17,45,0.00
2021,11,16,17,46,0.00
2021,11,16,17,47,0.00
2021,11,16,17,48,0.00
2021,11,16,17,49,0.00
2021,11,16,17,50,0.00
2021,11,16,17,51,0.00
2021,11,16,17,52,0.00
2021,11,16,17,53,0.00
2021,11,16,17,54,0.00
2021,11,16,17,55,0.00